| time (UTC) | temp F | wind direction | speed knots | gust knots | rain 1hr in | rain 24hr in | rain mn in | humidity % | barometer mb |
| 20260906090325 | 88 | 5 | 1.7 | 3.5 | 0.00 | 0.00 | 0.00 | 55 | 1017.9 |
| 20260906085825 | 88 | 37 | 2.6 | 4.3 | 0.00 | 0.00 | 0.00 | 54 | 1017.9 |
| 20260906085328 | 89 | 66 | 0.0 | 4.3 | 0.00 | 0.00 | 0.00 | 55 | 1017.9 |
| 20260906084825 | 88 | 65 | 1.7 | 3.5 | 0.00 | 0.00 | 0.00 | 56 | 1017.9 |
| 20260906084328 | 87 | 312 | 0.9 | 3.5 | 0.00 | 0.00 | 0.00 | 58 | 1017.8 |
| 20260906083825 | 86 | 273 | 1.7 | 4.3 | 0.00 | 0.00 | 0.00 | 59 | 1017.8 |
| 20260906083325 | 86 | 271 | 1.7 | 3.5 | 0.00 | 0.00 | 0.00 | 58 | 1017.8 |
| 20260906082826 | 86 | 272 | 0.0 | 3.5 | 0.00 | 0.00 | 0.00 | 59 | 1017.7 |
| 20260906082325 | 87 | 180 | 0.0 | 5.2 | 0.00 | 0.00 | 0.00 | 58 | 1017.7 |
| 20260906081828 | 86 | 99 | 2.6 | 5.2 | 0.00 | 0.00 | 0.00 | 59 | 1017.7 |
| 20260906081329 | 86 | 149 | 0.0 | 2.6 | 0.00 | 0.00 | 0.00 | 60 | 1017.6 |
| 20260906080826 | 85 | 144 | 1.7 | 3.5 | 0.00 | 0.00 | 0.00 | 61 | 1017.6 |
| 20260906080325 | 85 | 172 | 1.7 | 4.3 | 0.00 | 0.00 | 0.00 | 59 | 1017.6 |
| 20260906075828 | 85 | 96 | 0.9 | 5.2 | 0.00 | 0.00 | 0.00 | 61 | 1017.5 |
| 20260906075325 | 84 | 150 | 1.7 | 2.6 | 0.00 | 0.00 | 0.00 | 61 | 1017.5 |
| 20260906074828 | 84 | 205 | 1.7 | 2.6 | 0.00 | 0.00 | 0.00 | 62 | 1017.5 |
| 20260906074328 | 83 | 169 | 0.0 | 4.3 | 0.00 | 0.00 | 0.00 | 62 | 1017.4 |
| 20260906073826 | 83 | 174 | 3.5 | 4.3 | 0.00 | 0.00 | 0.00 | 62 | 1017.4 |
| 20260906073325 | 83 | 180 | 0.0 | 2.6 | 0.00 | 0.00 | 0.00 | 63 | 1017.4 |
| 20260906072825 | 83 | 109 | 0.0 | 0.0 | 0.00 | 0.00 | 0.00 | 65 | 1017.4 |
| 20260906072325 | 83 | 92 | 0.0 | 0.0 | 0.00 | 0.00 | 0.00 | 67 | 1017.4 |
| 20260906071828 | 82 | 82 | 0.0 | 0.0 | 0.00 | 0.00 | 0.00 | 67 | 1017.4 |
| 20260906071328 | 82 | 80 | 0.0 | 0.0 | 0.00 | 0.00 | 0.00 | 67 | 1017.4 |
| 20260906070828 | 82 | 75 | 0.0 | 0.0 | 0.00 | 0.00 | 0.00 | 68 | 1017.4 |
| 20260906070328 | 81 | 69 | 0.0 | 0.0 | 0.00 | 0.00 | 0.00 | 69 | 1017.4 |
| 20260906065825 | 81 | 67 | 0.0 | 0.0 | 0.00 | 0.00 | 0.00 | 69 | 1017.3 |
| 20260906065325 | 81 | 66 | 0.0 | 0.0 | 0.00 | 0.00 | 0.00 | 70 | 1017.3 |
| 20260906064828 | 80 | 65 | 0.0 | 0.0 | 0.00 | 0.00 | 0.00 | 70 | 1017.3 |
| 20260906064325 | 80 | 65 | 0.0 | 0.0 | 0.00 | 0.00 | 0.00 | 71 | 1017.3 |
| 20260906063825 | 78 | 65 | 0.0 | 0.0 | 0.00 | 0.00 | 0.00 | 74 | 1017.3 |
| 20260906063325 | 78 | 65 | 0.0 | 0.0 | 0.00 | 0.00 | 0.00 | 75 | 1017.3 |
| 20260906062828 | 77 | 65 | 0.0 | 0.0 | 0.00 | 0.00 | 0.00 | 76 | 1017.2 |
| 20260906062328 | 76 | 65 | 0.0 | 0.0 | 0.00 | 0.00 | 0.00 | 78 | 1017.2 |
| 20260906061825 | 75 | 65 | 0.0 | 0.0 | 0.00 | 0.00 | 0.00 | 79 | 1017.2 |
| 20260906061325 | 74 | 65 | 0.0 | 0.0 | 0.00 | 0.00 | 0.00 | 81 | 1017.1 |
| 20260906060828 | 73 | 65 | 0.0 | 0.0 | 0.00 | 0.00 | 0.00 | 83 | 1017.1 |
| 20260906060325 | 72 | 63 | 0.0 | 0.0 | 0.00 | 0.00 | 0.00 | 84 | 1017.1 |
| 20260906055828 | 71 | 26 | 0.0 | 0.0 | 0.00 | 0.00 | 0.00 | 86 | 1017.0 |
| 20260906055325 | 70 | 349 | 0.0 | 0.0 | 0.00 | 0.00 | 0.00 | 87 | 1017.0 |
| 20260906054829 | 69 | 349 | 0.0 | 0.0 | 0.00 | 0.00 | 0.00 | 87 | 1017.0 |
| 20260906054325 | 69 | 349 | 0.0 | 0.0 | 0.00 | 0.00 | 0.00 | 88 | 1016.8 |
| 20260906053828 | 68 | 349 | 0.0 | 0.0 | 0.00 | 0.00 | 0.00 | 88 | 1016.8 |
| 20260906053325 | 68 | 349 | 0.0 | 0.0 | 0.00 | 0.00 | 0.00 | 89 | 1016.8 |
| 20260906052828 | 67 | 349 | 0.0 | 0.0 | 0.00 | 0.00 | 0.00 | 89 | 1016.7 |
| 20260906052325 | 67 | 349 | 0.0 | 0.0 | 0.00 | 0.00 | 0.00 | 89 | 1016.7 |
| 20260906051828 | 67 | 349 | 0.0 | 0.0 | 0.00 | 0.00 | 0.00 | 89 | 1016.7 |
| 20260906051325 | 67 | 349 | 0.0 | 0.0 | 0.00 | 0.00 | 0.00 | 89 | 1016.6 |
| 20260906050828 | 67 | 349 | 0.0 | 0.0 | 0.00 | 0.00 | 0.00 | 89 | 1016.6 |
| 20260906050325 | 67 | 349 | 0.0 | 0.0 | 0.00 | 0.00 | 0.00 | 89 | 1016.6 |
| 20260906045828 | 66 | 349 | 0.0 | 0.9 | 0.00 | 0.00 | 0.00 | 88 | 1016.5 |
| 20260906045325 | 66 | 349 | 0.9 | 1.7 | 0.00 | 0.00 | 0.00 | 88 | 1016.5 |
| 20260906044828 | 66 | 350 | 0.0 | 0.0 | 0.00 | 0.00 | 0.00 | 89 | 1016.5 |
| 20260906044328 | 66 | 350 | 0.0 | 0.0 | 0.00 | 0.00 | 0.00 | 89 | 1016.5 |
| 20260906043828 | 67 | 350 | 0.0 | 0.0 | 0.00 | 0.00 | 0.00 | 89 | 1016.5 |
| 20260906043325 | 67 | 350 | 0.0 | 1.7 | 0.00 | 0.00 | 0.00 | 89 | 1016.5 |
| 20260906042824 | 67 | 350 | 0.9 | 1.7 | 0.00 | 0.00 | 0.00 | 89 | 1016.5 |
| 20260906042327 | 66 | 350 | 0.0 | 0.0 | 0.00 | 0.00 | 0.00 | 89 | 1016.5 |
| 20260906041827 | 66 | 350 | 0.0 | 0.0 | 0.00 | 0.00 | 0.00 | 89 | 1016.5 |
| 20260906041327 | 67 | 350 | 0.0 | 0.0 | 0.00 | 0.00 | 0.00 | 88 | 1016.4 |
| 20260906040827 | 67 | 350 | 0.0 | 0.0 | 0.00 | 0.00 | 0.00 | 89 | 1016.4 |
| 20260906040327 | 67 | 350 | 0.0 | 0.0 | 0.00 | 0.00 | 0.00 | 89 | 1016.4 |
| 20260906035827 | 67 | 350 | 0.0 | 0.0 | 0.00 | 0.00 | 0.00 | 89 | 1016.3 |
| 20260906035327 | 67 | 350 | 0.0 | 0.0 | 0.00 | 0.00 | 0.00 | 88 | 1016.3 |
| 20260906034827 | 67 | 350 | 0.0 | 0.0 | 0.00 | 0.00 | 0.00 | 88 | 1016.3 |
| 20260906034327 | 67 | 350 | 0.0 | 2.6 | 0.00 | 0.00 | 0.00 | 88 | 1016.2 |
| 20260906033824 | 67 | 348 | 1.7 | 2.6 | 0.00 | 0.00 | 0.00 | 87 | 1016.2 |
| 20260906033327 | 68 | 322 | 0.0 | 0.0 | 0.00 | 0.00 | 0.00 | 87 | 1016.2 |
| 20260906032827 | 68 | 322 | 0.0 | 0.0 | 0.00 | 0.00 | 0.00 | 86 | 1016.1 |
| 20260906032327 | 68 | 322 | 0.0 | 1.7 | 0.00 | 0.00 | 0.00 | 86 | 1016.1 |
| 20260906031827 | 68 | 323 | 0.9 | 1.7 | 0.00 | 0.00 | 0.00 | 86 | 1016.1 |
| 20260906031324 | 69 | 323 | 1.7 | 2.6 | 0.00 | 0.00 | 0.00 | 86 | 1016.2 |
| 20260906030827 | 68 | 323 | 0.9 | 1.7 | 0.00 | 0.00 | 0.00 | 86 | 1016.2 |
| 20260906030324 | 69 | 323 | 0.9 | 1.7 | 0.00 | 0.00 | 0.00 | 87 | 1016.2 |
| 20260906025824 | 69 | 323 | 0.0 | 0.0 | 0.00 | 0.00 | 0.00 | 86 | 1016.3 |
| 20260906025324 | 68 | 323 | 0.0 | 0.0 | 0.00 | 0.00 | 0.00 | 86 | 1016.3 |
| 20260906024824 | 69 | 323 | 0.0 | 0.0 | 0.00 | 0.00 | 0.00 | 86 | 1016.3 |
| 20260906024327 | 69 | 323 | 0.0 | 0.0 | 0.00 | 0.00 | 0.00 | 86 | 1016.4 |
| 20260906023824 | 69 | 323 | 0.0 | 0.0 | 0.00 | 0.00 | 0.00 | 86 | 1016.4 |
| 20260906023327 | 69 | 323 | 0.0 | 0.0 | 0.00 | 0.00 | 0.00 | 87 | 1016.4 |
| 20260906022827 | 69 | 323 | 0.0 | 0.0 | 0.00 | 0.00 | 0.00 | 87 | 1016.5 |
| 20260906022327 | 69 | 323 | 0.0 | 0.0 | 0.00 | 0.00 | 0.00 | 87 | 1016.5 |
| 20260906021824 | 69 | 323 | 0.0 | 0.0 | 0.00 | 0.00 | 0.00 | 86 | 1016.5 |
| 20260906021324 | 69 | 323 | 0.0 | 1.7 | 0.00 | 0.00 | 0.00 | 85 | 1016.3 |
| 20260906020827 | 69 | 323 | 1.7 | 1.7 | 0.00 | 0.00 | 0.00 | 85 | 1016.3 |
| 20260906020327 | 70 | 322 | 1.7 | 1.7 | 0.00 | 0.00 | 0.00 | 84 | 1016.3 |
| 20260906015824 | 70 | 321 | 0.0 | 0.0 | 0.00 | 0.00 | 0.00 | 84 | 1016.3 |
| 20260906015327 | 70 | 321 | 0.0 | 0.9 | 0.00 | 0.00 | 0.00 | 84 | 1016.3 |
| 20260906014824 | 70 | 321 | 0.9 | 1.7 | 0.00 | 0.00 | 0.00 | 85 | 1016.3 |
| 20260906014327 | 70 | 321 | 0.9 | 1.7 | 0.00 | 0.00 | 0.00 | 85 | 1016.3 |
| 20260906013824 | 70 | 321 | 1.7 | 1.7 | 0.00 | 0.00 | 0.00 | 85 | 1016.3 |
| 20260906013327 | 70 | 321 | 0.9 | 2.6 | 0.00 | 0.00 | 0.00 | 85 | 1016.3 |
| 20260906012824 | 70 | 323 | 1.7 | 1.7 | 0.00 | 0.00 | 0.00 | 84 | 1016.2 |
| 20260906012324 | 70 | 323 | 0.0 | 0.9 | 0.00 | 0.00 | 0.00 | 84 | 1016.2 |
| 20260906011824 | 70 | 323 | 0.0 | 0.9 | 0.00 | 0.00 | 0.00 | 83 | 1016.2 |
| 20260906011324 | 70 | 323 | 0.0 | 0.0 | 0.00 | 0.00 | 0.00 | 84 | 1016.2 |
| 20260906010824 | 70 | 323 | 0.0 | 0.9 | 0.00 | 0.00 | 0.00 | 84 | 1016.2 |
| 20260906010327 | 71 | 323 | 0.9 | 1.7 | 0.00 | 0.00 | 0.00 | 84 | 1016.2 |
| 20260906005825 | 71 | 323 | 0.0 | 0.0 | 0.00 | 0.00 | 0.00 | 84 | 1016.2 |
| 20260906005327 | 70 | 323 | 0.0 | 0.0 | 0.00 | 0.00 | 0.00 | 84 | 1016.2 |
| 20260906004824 | 70 | 323 | 0.0 | 0.0 | 0.00 | 0.00 | 0.00 | 84 | 1016.2 |
| 20260906004324 | 70 | 323 | 0.0 | 0.0 | 0.00 | 0.00 | 0.00 | 84 | 1016.3 |
| 20260906003827 | 70 | 323 | 0.0 | 0.9 | 0.00 | 0.00 | 0.00 | 84 | 1016.3 |
| 20260906003324 | 70 | 323 | 0.9 | 1.7 | 0.00 | 0.00 | 0.00 | 84 | 1016.3 |
| 20260906002825 | 71 | 323 | 0.0 | 0.0 | 0.00 | 0.00 | 0.00 | 84 | 1016.5 |
| 20260906002324 | 71 | 323 | 0.0 | 0.0 | 0.00 | 0.00 | 0.00 | 85 | 1016.5 |
| 20260906001824 | 71 | 323 | 0.0 | 0.0 | 0.00 | 0.00 | 0.00 | 85 | 1016.5 |
| 20260906001327 | 71 | 323 | 0.0 | 0.0 | 0.00 | 0.00 | 0.00 | 85 | 1016.6 |
| 20260906000827 | 71 | 323 | 0.0 | 0.0 | 0.00 | 0.00 | 0.00 | 85 | 1016.6 |
| 20260906000326 | 71 | 323 | 0.0 | 0.0 | 0.00 | 0.00 | 0.00 | 85 | 1016.6 |
| 20260905235827 | 71 | 323 | 0.0 | 0.0 | 0.00 | 0.00 | 0.00 | 85 | 1016.6 |
| 20260905235327 | 71 | 323 | 0.0 | 0.0 | 0.00 | 0.00 | 0.00 | 85 | 1016.6 |
| 20260905234824 | 71 | 323 | 0.0 | 0.0 | 0.00 | 0.00 | 0.00 | 85 | 1016.6 |
| 20260905234327 | 71 | 323 | 0.0 | 0.0 | 0.00 | 0.00 | 0.00 | 85 | 1016.6 |
| 20260905233824 | 71 | 323 | 0.0 | 0.0 | 0.00 | 0.00 | 0.00 | 85 | 1016.6 |
| 20260905233327 | 71 | 323 | 0.0 | 0.0 | 0.00 | 0.00 | 0.00 | 84 | 1016.6 |
| 20260905232827 | 71 | 323 | 0.0 | 0.0 | 0.00 | 0.00 | 0.00 | 85 | 1016.6 |
| 20260905232327 | 71 | 323 | 0.0 | 0.0 | 0.00 | 0.00 | 0.00 | 85 | 1016.6 |
| 20260905231824 | 71 | 323 | 0.0 | 1.7 | 0.00 | 0.00 | 0.00 | 85 | 1016.6 |
| 20260905231325 | 71 | 323 | 0.9 | 0.9 | 0.00 | 0.00 | 0.00 | 85 | 1016.6 |
| 20260905230824 | 71 | 323 | 0.0 | 0.0 | 0.00 | 0.00 | 0.00 | 85 | 1016.6 |
| 20260905230327 | 71 | 323 | 0.0 | 0.0 | 0.00 | 0.00 | 0.00 | 85 | 1016.6 |
| 20260905225827 | 71 | 323 | 0.0 | 1.7 | 0.00 | 0.00 | 0.00 | 85 | 1016.6 |
| 20260905225327 | 71 | 323 | 0.9 | 1.7 | 0.00 | 0.00 | 0.00 | 85 | 1016.6 |
| 20260905224826 | 72 | 323 | 0.0 | 1.7 | 0.00 | 0.00 | 0.00 | 85 | 1016.6 |
| 20260905224323 | 72 | 323 | 0.9 | 1.7 | 0.00 | 0.00 | 0.00 | 85 | 1016.6 |
| 20260905223826 | 72 | 323 | 0.0 | 1.7 | 0.00 | 0.00 | 0.00 | 84 | 1016.6 |
| 20260905223324 | 72 | 323 | 0.0 | 0.0 | 0.00 | 0.00 | 0.00 | 85 | 1016.6 |
| 20260905222823 | 72 | 323 | 0.0 | 0.0 | 0.00 | 0.00 | 0.00 | 85 | 1016.6 |
| 20260905222323 | 73 | 323 | 0.0 | 1.7 | 0.00 | 0.00 | 0.00 | 85 | 1016.6 |
| 20260905221823 | 73 | 319 | 0.0 | 1.7 | 0.00 | 0.00 | 0.00 | 86 | 1016.6 |
| 20260905221326 | 73 | 317 | 0.0 | 0.0 | 0.00 | 0.00 | 0.00 | 86 | 1016.5 |
| 20260905220826 | 73 | 317 | 0.0 | 0.0 | 0.00 | 0.00 | 0.00 | 86 | 1016.5 |
| 20260905220326 | 74 | 317 | 0.0 | 0.0 | 0.00 | 0.00 | 0.00 | 86 | 1016.5 |
| 20260905215827 | 74 | 317 | 0.0 | 0.0 | 0.00 | 0.00 | 0.00 | 85 | 1016.5 |
| 20260905215326 | 74 | 317 | 0.0 | 0.0 | 0.00 | 0.00 | 0.00 | 85 | 1016.5 |
| 20260905214823 | 74 | 317 | 0.0 | 0.0 | 0.00 | 0.00 | 0.00 | 85 | 1016.5 |
| 20260905214323 | 75 | 317 | 0.0 | 0.9 | 0.00 | 0.00 | 0.00 | 85 | 1016.6 |
| 20260905213823 | 74 | 317 | 0.0 | 0.0 | 0.00 | 0.00 | 0.00 | 85 | 1016.6 |
| 20260905213323 | 75 | 317 | 0.0 | 1.7 | 0.00 | 0.00 | 0.00 | 85 | 1016.6 |
| 20260905212823 | 75 | 317 | 0.9 | 2.6 | 0.00 | 0.00 | 0.00 | 86 | 1016.6 |
| 20260905212326 | 75 | 317 | 1.7 | 3.5 | 0.00 | 0.00 | 0.00 | 86 | 1016.6 |
| 20260905211826 | 75 | 319 | 2.6 | 3.5 | 0.00 | 0.00 | 0.00 | 86 | 1016.6 |
| 20260905211323 | 74 | 321 | 2.6 | 3.5 | 0.00 | 0.00 | 0.00 | 85 | 1016.5 |
| 20260905210823 | 74 | 323 | 2.6 | 2.6 | 0.00 | 0.00 | 0.00 | 85 | 1016.5 |
| 20260905210326 | 75 | 323 | 2.6 | 3.5 | 0.00 | 0.00 | 0.00 | 84 | 1016.5 |
| 20260905205823 | 75 | 329 | 1.7 | 2.6 | 0.00 | 0.00 | 0.00 | 84 | 1016.4 |
| 20260905205326 | 75 | 331 | 1.7 | 2.6 | 0.00 | 0.00 | 0.00 | 84 | 1016.4 |
| 20260905204826 | 75 | 331 | 1.7 | 2.6 | 0.00 | 0.00 | 0.00 | 84 | 1016.4 |
| 20260905204323 | 75 | 331 | 0.9 | 2.6 | 0.00 | 0.00 | 0.00 | 83 | 1016.5 |
| 20260905203823 | 75 | 331 | 2.6 | 2.6 | 0.00 | 0.00 | 0.00 | 81 | 1016.5 |
| 20260905203323 | 75 | 331 | 0.9 | 2.6 | 0.00 | 0.00 | 0.00 | 81 | 1016.5 |
| 20260905202823 | 76 | 331 | 0.9 | 2.6 | 0.00 | 0.00 | 0.00 | 79 | 1016.5 |
| 20260905202323 | 76 | 5 | 2.6 | 2.6 | 0.00 | 0.00 | 0.00 | 79 | 1016.5 |
| 20260905201823 | 76 | 22 | 1.7 | 2.6 | 0.00 | 0.00 | 0.00 | 78 | 1016.5 |
| 20260905201326 | 77 | 25 | 0.9 | 1.7 | 0.00 | 0.00 | 0.00 | 78 | 1016.4 |
| 20260905200823 | 78 | 26 | 0.0 | 1.7 | 0.00 | 0.00 | 0.00 | 77 | 1016.4 |
| 20260905200323 | 78 | 26 | 0.0 | 0.9 | 0.00 | 0.00 | 0.00 | 76 | 1016.4 |
| 20260905195826 | 78 | 26 | 0.9 | 1.7 | 0.00 | 0.00 | 0.00 | 76 | 1016.4 |
| 20260905195323 | 79 | 26 | 0.9 | 1.7 | 0.00 | 0.00 | 0.00 | 76 | 1016.4 |
| 20260905194823 | 79 | 26 | 0.9 | 2.6 | 0.00 | 0.00 | 0.00 | 76 | 1016.4 |
| 20260905194323 | 79 | 22 | 1.7 | 2.6 | 0.00 | 0.00 | 0.00 | 76 | 1016.4 |
| 20260905193823 | 79 | 18 | 1.7 | 2.6 | 0.00 | 0.00 | 0.00 | 77 | 1016.4 |
| 20260905193323 | 79 | 18 | 0.9 | 3.5 | 0.00 | 0.00 | 0.00 | 77 | 1016.4 |
| 20260905192827 | 79 | 23 | 3.5 | 4.3 | 0.00 | 0.00 | 0.00 | 77 | 1016.4 |
| 20260905192323 | 78 | 19 | 2.6 | 2.6 | 0.00 | 0.00 | 0.00 | 78 | 1016.4 |
| 20260905191823 | 78 | 13 | 2.6 | 2.6 | 0.00 | 0.00 | 0.00 | 78 | 1016.4 |
| 20260905191323 | 79 | 13 | 0.9 | 1.7 | 0.00 | 0.00 | 0.00 | 77 | 1016.2 |
| 20260905190823 | 79 | 13 | 0.0 | 0.0 | 0.00 | 0.00 | 0.00 | 76 | 1016.2 |
| 20260905190326 | 79 | 13 | 0.0 | 0.0 | 0.00 | 0.00 | 0.00 | 75 | 1016.2 |
| 20260905185826 | 80 | 13 | 0.0 | 2.6 | 0.00 | 0.00 | 0.00 | 75 | 1016.1 |
| 20260905185326 | 79 | 13 | 1.7 | 2.6 | 0.00 | 0.00 | 0.00 | 75 | 1016.1 |
| 20260905184823 | 80 | 0 | 1.7 | 2.6 | 0.00 | 0.00 | 0.00 | 75 | 1016.1 |
| 20260905184323 | 81 | 304 | 0.0 | 4.3 | 0.00 | 0.00 | 0.00 | 74 | 1015.8 |
| 20260905183823 | 81 | 299 | 2.6 | 5.2 | 0.00 | 0.00 | 0.00 | 73 | 1015.8 |
| 20260905183326 | 81 | 303 | 2.6 | 4.3 | 0.00 | 0.00 | 0.00 | 72 | 1015.8 |
| 20260905182826 | 82 | 296 | 2.6 | 5.2 | 0.00 | 0.00 | 0.00 | 70 | 1015.7 |
| 20260905182326 | 82 | 292 | 3.5 | 6.1 | 0.00 | 0.00 | 0.00 | 69 | 1015.7 |
| 20260905181823 | 82 | 293 | 3.5 | 7.0 | 0.00 | 0.00 | 0.00 | 68 | 1015.7 |
| 20260905181323 | 83 | 291 | 4.3 | 6.1 | 0.00 | 0.00 | 0.00 | 66 | 1015.6 |
| 20260905180826 | 83 | 299 | 5.2 | 6.1 | 0.00 | 0.00 | 0.00 | 65 | 1015.6 |
| 20260905180326 | 83 | 286 | 6.1 | 7.0 | 0.00 | 0.00 | 0.00 | 64 | 1015.6 |
| 20260905175826 | 84 | 291 | 3.5 | 5.2 | 0.00 | 0.00 | 0.00 | 63 | 1015.6 |
| 20260905175323 | 84 | 286 | 2.6 | 4.3 | 0.00 | 0.00 | 0.00 | 63 | 1015.6 |
| 20260905174823 | 84 | 280 | 5.2 | 5.2 | 0.00 | 0.00 | 0.00 | 62 | 1015.6 |
| 20260905174323 | 85 | 277 | 4.3 | 5.2 | 0.00 | 0.00 | 0.00 | 60 | 1015.5 |
| 20260905173823 | 85 | 310 | 4.3 | 6.1 | 0.00 | 0.00 | 0.00 | 59 | 1015.5 |
| 20260905173323 | 86 | 306 | 2.6 | 5.2 | 0.00 | 0.00 | 0.00 | 56 | 1015.5 |
| 20260905172826 | 87 | 294 | 2.6 | 4.3 | 0.00 | 0.00 | 0.00 | 54 | 1015.4 |
| 20260905172323 | 87 | 293 | 2.6 | 4.3 | 0.00 | 0.00 | 0.00 | 53 | 1015.4 |
| 20260905171826 | 87 | 286 | 3.5 | 5.2 | 0.00 | 0.00 | 0.00 | 53 | 1015.4 |
| 20260905171326 | 88 | 292 | 2.6 | 4.3 | 0.00 | 0.00 | 0.00 | 53 | 1015.2 |
| 20260905170825 | 88 | 286 | 1.7 | 6.1 | 0.00 | 0.00 | 0.00 | 52 | 1015.2 |
| 20260905170325 | 88 | 286 | 2.6 | 6.1 | 0.00 | 0.00 | 0.00 | 51 | 1015.2 |
| 20260905165823 | 89 | 277 | 4.3 | 7.0 | 0.00 | 0.00 | 0.00 | 51 | 1015.2 |
| 20260905165322 | 89 | 286 | 3.5 | 6.1 | 0.00 | 0.00 | 0.00 | 50 | 1015.2 |
| 20260905164825 | 89 | 296 | 4.3 | 7.0 | 0.00 | 0.00 | 0.00 | 50 | 1015.2 |
| 20260905164325 | 90 | 295 | 2.6 | 6.1 | 0.00 | 0.00 | 0.00 | 50 | 1015.1 |
| 20260905163823 | 90 | 269 | 4.3 | 7.0 | 0.00 | 0.00 | 0.00 | 49 | 1015.1 |
| 20260905163323 | 90 | 275 | 7.0 | 7.8 | 0.00 | 0.00 | 0.00 | 49 | 1015.1 |
| 20260905162825 | 90 | 302 | 7.0 | 7.8 | 0.00 | 0.00 | 0.00 | 49 | 1015.2 |
| 20260905162325 | 90 | 294 | 3.5 | 7.0 | 0.00 | 0.00 | 0.00 | 51 | 1015.2 |
| 20260905161822 | 90 | 252 | 4.3 | 8.7 | 0.00 | 0.00 | 0.00 | 53 | 1015.2 |
| 20260905161322 | 90 | 269 | 6.1 | 8.7 | 0.00 | 0.00 | 0.00 | 52 | 1015.3 |
| 20260905160822 | 91 | 271 | 4.3 | 7.8 | 0.00 | 0.00 | 0.00 | 51 | 1015.3 |
| 20260905160322 | 91 | 313 | 4.3 | 7.8 | 0.00 | 0.00 | 0.00 | 49 | 1015.3 |
| 20260905155825 | 91 | 311 | 5.2 | 8.7 | 0.00 | 0.00 | 0.00 | 49 | 1015.4 |
| 20260905155322 | 91 | 291 | 3.5 | 8.7 | 0.00 | 0.00 | 0.00 | 49 | 1015.4 |
| 20260905154822 | 92 | 314 | 3.5 | 6.1 | 0.00 | 0.00 | 0.00 | 48 | 1015.4 |
| 20260905154325 | 91 | 302 | 0.9 | 7.8 | 0.00 | 0.00 | 0.00 | 46 | 1015.3 |
| 20260905153825 | 91 | 292 | 5.2 | 9.6 | 0.00 | 0.00 | 0.00 | 49 | 1015.3 |
| 20260905153325 | 91 | 319 | 6.1 | 7.8 | 0.00 | 0.00 | 0.00 | 46 | 1015.3 |
| 20260905152822 | 91 | 299 | 6.1 | 8.7 | 0.00 | 0.00 | 0.00 | 48 | 1015.4 |
| 20260905152325 | 92 | 285 | 4.3 | 8.7 | 0.00 | 0.00 | 0.00 | 50 | 1015.4 |
| 20260905151822 | 91 | 270 | 7.0 | 10.4 | 0.00 | 0.00 | 0.00 | 51 | 1015.4 |
| 20260905151322 | 91 | 274 | 10.4 | 11.3 | 0.00 | 0.00 | 0.00 | 50 | 1015.4 |
| 20260905150822 | 91 | 277 | 8.7 | 12.2 | 0.00 | 0.00 | 0.00 | 51 | 1015.4 |
| 20260905150322 | 91 | 271 | 7.8 | 10.4 | 0.00 | 0.00 | 0.00 | 48 | 1015.4 |
| 20260905145825 | 91 | 297 | 6.1 | 12.2 | 0.00 | 0.00 | 0.00 | 50 | 1015.4 |
| 20260905145322 | 92 | 274 | 7.0 | 12.2 | 0.00 | 0.00 | 0.00 | 48 | 1015.4 |
| 20260905144822 | 92 | 307 | 9.6 | 10.4 | 0.00 | 0.00 | 0.00 | 46 | 1015.4 |
| 20260905144325 | 92 | 269 | 7.8 | 11.3 | 0.00 | 0.00 | 0.00 | 45 | 1015.4 |
| 20260905143822 | 92 | 263 | 8.7 | 12.2 | 0.00 | 0.00 | 0.00 | 43 | 1015.4 |
| 20260905143326 | 93 | 304 | 7.0 | 12.2 | 0.00 | 0.00 | 0.00 | 43 | 1015.4 |
| 20260905142825 | 93 | 277 | 7.0 | 11.3 | 0.00 | 0.00 | 0.00 | 44 | 1015.5 |
| 20260905142325 | 93 | 296 | 7.8 | 12.2 | 0.00 | 0.00 | 0.00 | 43 | 1015.5 |
| 20260905141822 | 94 | 259 | 8.7 | 13.0 | 0.00 | 0.00 | 0.00 | 42 | 1015.5 |
| 20260905141325 | 94 | 274 | 4.3 | 11.3 | 0.00 | 0.00 | 0.00 | 42 | 1015.5 |
| 20260905140822 | 93 | 282 | 4.3 | 13.9 | 0.00 | 0.00 | 0.00 | 37 | 1015.5 |
| 20260905140325 | 93 | 248 | 6.1 | 13.9 | 0.00 | 0.00 | 0.00 | 43 | 1015.5 |
| 20260905135822 | 93 | 254 | 7.0 | 10.4 | 0.00 | 0.00 | 0.00 | 44 | 1015.6 |
| 20260905135322 | 93 | 252 | 5.2 | 11.3 | 0.00 | 0.00 | 0.00 | 45 | 1015.6 |
| 20260905134822 | 93 | 281 | 4.3 | 13.9 | 0.00 | 0.00 | 0.00 | 47 | 1015.6 |
| 20260905134322 | 93 | 254 | 5.2 | 10.4 | 0.00 | 0.00 | 0.00 | 48 | 1015.6 |
| 20260905133825 | 93 | 225 | 7.0 | 11.3 | 0.00 | 0.00 | 0.00 | 49 | 1015.6 |
| 20260905133322 | 93 | 265 | 11.3 | 11.3 | 0.00 | 0.00 | 0.00 | 49 | 1015.6 |
| 20260905132822 | 93 | 250 | 7.0 | 10.4 | 0.00 | 0.00 | 0.00 | 49 | 1015.6 |
| 20260905132322 | 93 | 248 | 5.2 | 9.6 | 0.00 | 0.00 | 0.00 | 48 | 1015.5 |
| 20260905131822 | 93 | 256 | 5.2 | 9.6 | 0.00 | 0.00 | 0.00 | 47 | 1015.5 |
| 20260905131325 | 94 | 257 | 8.7 | 10.4 | 0.00 | 0.00 | 0.00 | 44 | 1015.7 |
| 20260905130822 | 94 | 242 | 3.5 | 10.4 | 0.00 | 0.00 | 0.00 | 45 | 1015.7 |
| 20260905130322 | 94 | 273 | 4.3 | 8.7 | 0.00 | 0.00 | 0.00 | 44 | 1015.7 |
| 20260905125822 | 94 | 245 | 2.6 | 8.7 | 0.00 | 0.00 | 0.00 | 44 | 1015.8 |
| 20260905125325 | 93 | 248 | 2.6 | 7.8 | 0.00 | 0.00 | 0.00 | 45 | 1015.8 |
| 20260905124822 | 93 | 293 | 1.7 | 8.7 | 0.00 | 0.00 | 0.00 | 46 | 1015.8 |
| 20260905124322 | 94 | 251 | 6.1 | 10.4 | 0.00 | 0.00 | 0.00 | 41 | 1015.9 |
| 20260905123825 | 94 | 262 | 7.8 | 7.8 | 0.00 | 0.00 | 0.00 | 46 | 1015.9 |
| 20260905123322 | 93 | 254 | 5.2 | 9.6 | 0.00 | 0.00 | 0.00 | 47 | 1015.9 |
| 20260905122822 | 93 | 239 | 3.5 | 7.0 | 0.00 | 0.00 | 0.00 | 46 | 1016.0 |
| 20260905122322 | 92 | 232 | 4.3 | 9.6 | 0.00 | 0.00 | 0.00 | 46 | 1016.0 |
| 20260905121825 | 93 | 251 | 2.6 | 8.7 | 0.00 | 0.00 | 0.00 | 46 | 1016.0 |
| 20260905121325 | 93 | 241 | 3.5 | 10.4 | 0.00 | 0.00 | 0.00 | 44 | 1016.0 |
| 20260905120825 | 93 | 205 | 4.3 | 11.3 | 0.00 | 0.00 | 0.00 | 45 | 1016.0 |
| 20260905120325 | 93 | 288 | 7.0 | 10.4 | 0.00 | 0.00 | 0.00 | 44 | 1016.0 |
| 20260905115825 | 92 | 269 | 8.7 | 12.2 | 0.00 | 0.00 | 0.00 | 45 | 1016.0 |
| 20260905115325 | 92 | 272 | 3.5 | 11.3 | 0.00 | 0.00 | 0.00 | 42 | 1016.0 |
| 20260905114822 | 93 | 231 | 9.6 | 11.3 | 0.00 | 0.00 | 0.00 | 45 | 1016.0 |
| 20260905114325 | 93 | 244 | 2.6 | 8.7 | 0.00 | 0.00 | 0.00 | 43 | 1016.0 |
| 20260905113825 | 93 | 277 | 7.0 | 10.4 | 0.00 | 0.00 | 0.00 | 42 | 1016.0 |
| 20260905113322 | 92 | 247 | 6.1 | 10.4 | 0.00 | 0.00 | 0.00 | 44 | 1016.0 |
| 20260905112822 | 93 | 240 | 7.0 | 10.4 | 0.00 | 0.00 | 0.00 | 43 | 1016.0 |
| 20260905112325 | 93 | 246 | 6.1 | 8.7 | 0.00 | 0.00 | 0.00 | 41 | 1016.0 |
| 20260905111821 | 94 | 239 | 2.6 | 7.0 | 0.00 | 0.00 | 0.00 | 38 | 1016.0 |
| 20260905111324 | 94 | 217 | 7.0 | 8.7 | 0.00 | 0.00 | 0.00 | 37 | 1016.0 |
| 20260905110821 | 93 | 209 | 5.2 | 8.7 | 0.00 | 0.00 | 0.00 | 37 | 1016.0 |
| 20260905110324 | 94 | 226 | 8.7 | 8.7 | 0.00 | 0.00 | 0.00 | 38 | 1016.0 |
| 20260905105824 | 94 | 189 | 4.3 | 8.7 | 0.00 | 0.00 | 0.00 | 37 | 1016.1 |
| 20260905105321 | 93 | 248 | 6.1 | 7.8 | 0.00 | 0.00 | 0.00 | 37 | 1016.1 |
| 20260905104824 | 93 | 254 | 4.3 | 7.0 | 0.00 | 0.00 | 0.00 | 36 | 1016.1 |
| 20260905104324 | 94 | 231 | 1.7 | 8.7 | 0.00 | 0.00 | 0.00 | 37 | 1016.1 |
| 20260905103824 | 94 | 215 | 2.6 | 7.0 | 0.00 | 0.00 | 0.00 | 38 | 1016.1 |
| 20260905103321 | 93 | 209 | 4.3 | 8.7 | 0.00 | 0.00 | 0.00 | 38 | 1016.1 |
| 20260905102821 | 93 | 246 | 2.6 | 7.8 | 0.00 | 0.00 | 0.00 | 38 | 1016.3 |
| 20260905102321 | 92 | 246 | 3.5 | 8.7 | 0.00 | 0.00 | 0.00 | 39 | 1016.3 |
| 20260905101821 | 93 | 250 | 5.2 | 7.0 | 0.00 | 0.00 | 0.00 | 39 | 1016.3 |
| 20260905101324 | 93 | 246 | 7.0 | 7.0 | 0.00 | 0.00 | 0.00 | 39 | 1016.5 |
| 20260905100824 | 92 | 286 | 0.9 | 7.0 | 0.00 | 0.00 | 0.00 | 41 | 1016.5 |
| 20260905100324 | 93 | 254 | 6.1 | 8.7 | 0.00 | 0.00 | 0.00 | 39 | 1016.5 |
| 20260905095821 | 92 | 261 | 2.6 | 8.7 | 0.00 | 0.00 | 0.00 | 40 | 1016.4 |
| 20260905095324 | 93 | 265 | 2.6 | 6.1 | 0.00 | 0.00 | 0.00 | 41 | 1016.4 |
| 20260905094824 | 93 | 278 | 2.6 | 5.2 | 0.00 | 0.00 | 0.00 | 41 | 1016.4 |
| 20260905094321 | 93 | 293 | 0.9 | 8.7 | 0.00 | 0.00 | 0.00 | 41 | 1016.5 |
| 20260905093821 | 93 | 12 | 0.0 | 4.3 | 0.00 | 0.00 | 0.00 | 38 | 1016.5 |
| 20260905093324 | 92 | 296 | 0.0 | 5.2 | 0.00 | 0.00 | 0.00 | 38 | 1016.5 |
| 20260905092824 | 92 | 272 | 4.3 | 6.1 | 0.00 | 0.00 | 0.00 | 38 | 1016.5 |
| 20260905092322 | 92 | 205 | 1.7 | 7.0 | 0.00 | 0.00 | 0.00 | 37 | 1016.5 |
| 20260905091821 | 92 | 308 | 1.7 | 4.3 | 0.00 | 0.00 | 0.00 | 36 | 1016.5 |
| 20260905091321 | 92 | 229 | 3.5 | 4.3 | 0.00 | 0.00 | 0.00 | 38 | 1016.3 |
| 20260905090821 | 92 | 204 | 2.6 | 3.5 | 0.00 | 0.00 | 0.00 | 41 | 1016.3 |